VIR172 TBPB-EGLL

Flight info

Callsign VIR172
Flight time N/A
Altitude 37000
Route FISST/M083F370 DCT 19N055W 23N050W/M083F390 26N045W 29N040W 35N030W DCT GINSU DCT 41N020W/M083F410 DCT GONAN DCT ETIKI DCT REGHI/N0481F410 DCT AMPOP DCT SIDDI DCT DAWLY DCT ELRIP DCT OTMET
Aircraft B789/H-SDE1E2E3FGHIJ2J3J4J5M1RWXY/LB1D1

Departure

Time 2026-05-04 06:33
Airport Grantley Adams International Airport (TBPB)

Arrival

Time N/A
Airport London Heathrow Airport (EGLL)
Time Latitude Longitude Altitude Speed Heading
2026-05-04 06:03 13.07847 -59.48821 178 ft 0 kts 345°
2026-05-04 06:25 13.07756 -59.48796 177 ft 0 kts 345°
2026-05-04 06:28 13.07757 -59.48797 177 ft 1 kts 339°
2026-05-04 06:28 13.07761 -59.48802 177 ft 1 kts 306°
2026-05-04 06:29 13.07760 -59.48810 177 ft 1 kts 262°
2026-05-04 06:29 13.07741 -59.48846 178 ft 13 kts 242°
2026-05-04 06:29 13.07688 -59.48974 178 ft 22 kts 256°
2026-05-04 06:29 13.07651 -59.49128 178 ft 22 kts 257°
2026-05-04 06:30 13.07616 -59.49284 178 ft 23 kts 257°
2026-05-04 06:30 13.07577 -59.49444 177 ft 23 kts 256°
2026-05-04 06:30 13.07537 -59.49606 177 ft 24 kts 256°
2026-05-04 06:30 13.07496 -59.49768 178 ft 24 kts 255°
2026-05-04 06:31 13.07453 -59.49937 178 ft 24 kts 256°
2026-05-04 06:31 13.07415 -59.50097 178 ft 23 kts 256°
2026-05-04 06:31 13.07375 -59.50261 178 ft 24 kts 256°
2026-05-04 06:31 13.07335 -59.50427 178 ft 24 kts 256°
2026-05-04 06:32 13.07293 -59.50596 177 ft 25 kts 255°
2026-05-04 06:33 13.07830 -59.47614 1366 ft 166 kts 79°
2026-05-04 06:34 13.08058 -59.46368 1679 ft 193 kts 82°
2026-05-04 06:34 13.08296 -59.44942 2074 ft 211 kts 80°
2026-05-04 06:34 13.08554 -59.43393 2467 ft 231 kts 81°
2026-05-04 06:34 13.08821 -59.41721 3113 ft 242 kts 81°
2026-05-04 06:35 13.09087 -59.40013 4018 ft 244 kts 81°
2026-05-04 06:36 13.19074 -59.32301 9095 ft 281 kts 36°
2026-05-04 06:37 13.20730 -59.31208 9816 ft 285 kts 36°
2026-05-04 06:37 13.22406 -59.30085 10377 ft 294 kts 36°
2026-05-04 06:37 13.24156 -59.28900 10750 ft 309 kts 37°
2026-05-04 06:37 13.25997 -59.27656 11103 ft 325 kts 36°
2026-05-04 06:38 13.27930 -59.26359 11503 ft 338 kts 35°
2026-05-04 06:38 13.29909 -59.25031 12159 ft 342 kts 36°
2026-05-04 06:40 13.44302 -59.15333 16763 ft 364 kts 34°
2026-05-04 06:40 13.46400 -59.13919 17384 ft 367 kts 34°
2026-05-04 06:40 13.48540 -59.12476 17998 ft 370 kts 34°
2026-05-04 06:40 13.50699 -59.11020 18587 ft 373 kts 34°
2026-05-04 06:41 13.52877 -59.09550 19086 ft 377 kts 33°
2026-05-04 06:41 13.55074 -59.08068 19643 ft 379 kts 33°
2026-05-04 06:41 13.57288 -59.06573 20124 ft 384 kts 33°
2026-05-04 06:41 13.59527 -59.05061 20664 ft 386 kts 33°
2026-05-04 06:42 13.61789 -59.03534 21109 ft 392 kts 33°
2026-05-04 06:42 13.64075 -59.01991 21617 ft 394 kts 33°
2026-05-04 06:42 13.66379 -59.00434 22076 ft 399 kts 33°
2026-05-04 06:44 13.83181 -58.89071 24935 ft 426 kts 32°
2026-05-04 06:44 13.85667 -58.87387 25306 ft 429 kts 32°
2026-05-04 06:44 13.88170 -58.85694 25696 ft 432 kts 31°
2026-05-04 06:45 13.90693 -58.83985 26091 ft 435 kts 31°
2026-05-04 06:45 13.93227 -58.82266 26454 ft 438 kts 32°
2026-05-04 06:45 13.95777 -58.80537 26827 ft 440 kts 31°
2026-05-04 06:45 13.98386 -58.78771 27187 ft 443 kts 31°
2026-05-04 06:46 14.00194 -58.77547 27463 ft 445 kts 31°
2026-05-04 06:46 14.02789 -58.75787 27814 ft 448 kts 31°
2026-05-04 06:46 14.05309 -58.74075 28157 ft 451 kts 32°
2026-05-04 06:46 14.08133 -58.72158 28535 ft 454 kts 31°
2026-05-04 06:48 14.26900 -58.59411 30842 ft 470 kts 32°
2026-05-04 06:48 14.29568 -58.57596 31107 ft 473 kts 31°
2026-05-04 06:49 14.32321 -58.55723 31383 ft 476 kts 31°
2026-05-04 06:50 14.51940 -58.42359 33292 ft 492 kts 31°
2026-05-04 06:51 14.54802 -58.40407 33552 ft 494 kts 31°
2026-05-04 06:51 14.57677 -58.38445 33821 ft 497 kts 31°
2026-05-04 06:51 14.60566 -58.36473 34086 ft 499 kts 31°
2026-05-04 06:51 14.63468 -58.34493 34324 ft 501 kts 32°
2026-05-04 06:52 14.66385 -58.32501 34597 ft 502 kts 31°
2026-05-04 06:52 14.69299 -58.30509 34922 ft 502 kts 31°
2026-05-04 06:52 14.72210 -58.28520 35280 ft 501 kts 31°
2026-05-04 06:52 14.75117 -58.26534 35641 ft 501 kts 31°
2026-05-04 06:53 14.78017 -58.24551 36001 ft 500 kts 31°
2026-05-04 06:53 14.80912 -58.22570 36355 ft 499 kts 31°
2026-05-04 06:53 14.83800 -58.20594 36706 ft 498 kts 31°
2026-05-04 06:53 14.86690 -58.18616 36935 ft 499 kts 31°
2026-05-04 06:54 14.92501 -58.14637 37010 ft 498 kts 31°
2026-05-04 06:54 14.98224 -58.10714 37012 ft 491 kts 31°
2026-05-04 06:55 15.03930 -58.06804 37015 ft 492 kts 31°
2026-05-04 06:55 15.09629 -58.02893 37036 ft 492 kts 31°
2026-05-04 06:57 15.32409 -57.87238 37043 ft 492 kts 31°
2026-05-04 06:58 15.38108 -57.83315 37035 ft 492 kts 31°
2026-05-04 06:58 15.43803 -57.79392 37040 ft 491 kts 31°
2026-05-04 06:59 15.49496 -57.75467 37039 ft 491 kts 31°
2026-05-04 06:59 15.55178 -57.71548 37031 ft 490 kts 31°
2026-05-04 07:01 15.77891 -57.55855 37035 ft 489 kts 31°
2026-05-04 07:02 15.83563 -57.51930 37035 ft 491 kts 31°
2026-05-04 07:02 15.89244 -57.47995 37032 ft 491 kts 31°
2026-05-04 07:03 15.94925 -57.44058 37032 ft 490 kts 31°
2026-05-04 07:03 16.00551 -57.40156 37030 ft 489 kts 31°
2026-05-04 07:04 16.06201 -57.36235 37038 ft 488 kts 31°
2026-05-04 07:04 16.11857 -57.32307 37042 ft 489 kts 31°
2026-05-04 07:05 16.17520 -57.28371 37044 ft 490 kts 31°
2026-05-04 07:05 16.23186 -57.24431 37045 ft 490 kts 31°
2026-05-04 07:06 16.31670 -57.18525 37051 ft 488 kts 31°
2026-05-04 07:07 16.37318 -57.14591 37048 ft 489 kts 31°
2026-05-04 07:09 16.59602 -56.99037 37058 ft 487 kts 31°
2026-05-04 07:09 16.65190 -56.95131 37058 ft 487 kts 31°
2026-05-04 07:10 16.70815 -56.91195 37058 ft 487 kts 31°
2026-05-04 07:12 16.93285 -56.75445 37054 ft 486 kts 32°
2026-05-04 07:12 16.98899 -56.71503 37055 ft 486 kts 32°
2026-05-04 07:13 17.04508 -56.67562 37059 ft 486 kts 32°
2026-05-04 07:13 17.10100 -56.63629 37057 ft 484 kts 32°
2026-05-04 07:14 17.24053 -56.53805 37059 ft 484 kts 32°
2026-05-04 07:15 17.29650 -56.49858 37068 ft 485 kts 32°
2026-05-04 07:15 17.35230 -56.45920 37061 ft 483 kts 32°
2026-05-04 07:16 17.40796 -56.41991 37062 ft 482 kts 32°
2026-05-04 07:16 17.46357 -56.38061 37061 ft 482 kts 32°
2026-05-04 07:17 17.51916 -56.34130 37064 ft 482 kts 32°
2026-05-04 07:17 17.57478 -56.30194 37071 ft 482 kts 32°
2026-05-04 07:18 17.63031 -56.26261 37061 ft 482 kts 32°
2026-05-04 07:18 17.68592 -56.22320 37065 ft 483 kts 32°
2026-05-04 07:19 17.74160 -56.18370 37067 ft 484 kts 32°
2026-05-04 07:19 17.79735 -56.14413 37071 ft 484 kts 32°
2026-05-04 07:20 17.85301 -56.10458 37068 ft 482 kts 32°
2026-05-04 07:20 17.90845 -56.06517 37066 ft 481 kts 32°
2026-05-04 07:22 18.11497 -55.88600 37076 ft 485 kts 41°
2026-05-04 07:23 18.16359 -55.83752 37073 ft 485 kts 41°
2026-05-04 07:23 18.21256 -55.78889 37073 ft 484 kts 41°
2026-05-04 07:24 18.26144 -55.74019 37070 ft 484 kts 41°
2026-05-04 07:24 18.31028 -55.69155 37075 ft 482 kts 41°
2026-05-04 07:26 18.49657 -55.50557 37073 ft 482 kts 41°
2026-05-04 07:27 18.54518 -55.45695 37080 ft 481 kts 41°
2026-05-04 07:27 18.59368 -55.40838 37081 ft 481 kts 41°
2026-05-04 07:28 18.64222 -55.35975 37072 ft 481 kts 41°
2026-05-04 07:28 18.69071 -55.31113 37076 ft 481 kts 41°
2026-05-04 07:29 18.73919 -55.26247 37082 ft 481 kts 41°
2026-05-04 07:29 18.78765 -55.21379 37080 ft 480 kts 41°
2026-05-04 07:30 18.83599 -55.16520 37079 ft 480 kts 41°
2026-05-04 07:30 18.88429 -55.11661 37080 ft 479 kts 41°
2026-05-04 07:31 18.93260 -55.06796 37081 ft 480 kts 41°
2026-05-04 07:33 19.11525 -54.86204 37080 ft 482 kts 46°
2026-05-04 07:33 19.15949 -54.80877 37083 ft 482 kts 46°
2026-05-04 07:34 19.20390 -54.75554 37089 ft 483 kts 46°
2026-05-04 07:34 19.24793 -54.70255 37086 ft 482 kts 46°
2026-05-04 07:35 19.29206 -54.64947 37078 ft 479 kts 46°
2026-05-04 07:35 19.33612 -54.59641 37080 ft 480 kts 46°
2026-05-04 07:36 19.38023 -54.54323 37083 ft 481 kts 46°
2026-05-04 07:38 19.55667 -54.33008 37082 ft 480 kts 46°
2026-05-04 07:38 19.60075 -54.27670 37086 ft 481 kts 46°
2026-05-04 07:39 19.64491 -54.22319 37087 ft 483 kts 46°
2026-05-04 07:39 19.68906 -54.16962 37091 ft 481 kts 46°
2026-05-04 07:40 19.73306 -54.11621 37092 ft 480 kts 46°
2026-05-04 07:40 19.77691 -54.06292 37087 ft 479 kts 46°
2026-05-04 07:41 19.82077 -54.00958 37088 ft 480 kts 46°
2026-05-04 07:41 19.86479 -53.95599 37096 ft 482 kts 46°
2026-05-04 07:42 19.90881 -53.90235 37090 ft 481 kts 46°
2026-05-04 07:42 19.95270 -53.84882 37088 ft 480 kts 46°
2026-05-04 07:43 19.99649 -53.79535 37086 ft 480 kts 46°
2026-05-04 07:43 20.04033 -53.74179 37093 ft 480 kts 46°
2026-05-04 07:44 20.08420 -53.68813 37088 ft 481 kts 46°
2026-05-04 07:44 20.12814 -53.63434 37100 ft 482 kts 46°
2026-05-04 07:45 20.17216 -53.58040 37088 ft 483 kts 46°
2026-05-04 07:45 20.21586 -53.52679 37096 ft 482 kts 46°
2026-05-04 07:46 20.25976 -53.47290 37083 ft 481 kts 46°
2026-05-04 07:46 20.30356 -53.41908 37086 ft 480 kts 46°
2026-05-04 07:47 20.34727 -53.36532 37086 ft 480 kts 46°
2026-05-04 07:49 20.52171 -53.15026 37096 ft 481 kts 46°
2026-05-04 07:49 20.56547 -53.09619 37094 ft 482 kts 46°
2026-05-04 07:50 20.60923 -53.04204 37100 ft 481 kts 46°
2026-05-04 07:50 20.65294 -52.98793 37096 ft 481 kts 46°
2026-05-04 07:51 20.69655 -52.93389 37102 ft 480 kts 46°
2026-05-04 07:51 20.74003 -52.87994 37095 ft 479 kts 46°
2026-05-04 07:52 20.78343 -52.82605 37096 ft 479 kts 46°
2026-05-04 07:52 20.82696 -52.77195 37098 ft 480 kts 47°
2026-05-04 07:54 21.00063 -52.55556 37099 ft 478 kts 46°
2026-05-04 07:55 21.04392 -52.50150 37106 ft 479 kts 46°
2026-05-04 07:55 21.08722 -52.44736 37108 ft 479 kts 46°
2026-05-04 07:56 21.13052 -52.39317 37103 ft 478 kts 46°
2026-05-04 07:56 21.17363 -52.33917 37100 ft 476 kts 46°
2026-05-04 07:57 21.21669 -52.28519 37103 ft 477 kts 47°
2026-05-04 07:57 21.25981 -52.23106 37110 ft 478 kts 46°
2026-05-04 07:58 21.30297 -52.17684 37109 ft 478 kts 47°
2026-05-04 07:58 21.34611 -52.12258 37106 ft 477 kts 47°
2026-05-04 07:59 21.38915 -52.06841 37103 ft 477 kts 47°
2026-05-04 07:59 21.43213 -52.01424 37107 ft 477 kts 47°
2026-05-04 08:00 21.47513 -51.96000 37113 ft 477 kts 47°
2026-05-04 08:02 21.64696 -51.74272 37102 ft 478 kts 47°
2026-05-04 08:02 21.68989 -51.68830 37101 ft 477 kts 47°
2026-05-04 08:03 21.73276 -51.63390 37102 ft 477 kts 47°
2026-05-04 08:03 21.77557 -51.57952 37098 ft 476 kts 47°
2026-05-04 08:04 21.81829 -51.52521 37103 ft 474 kts 47°
2026-05-04 08:04 21.86091 -51.47096 37107 ft 475 kts 47°
2026-05-04 08:05 21.90364 -51.41651 37113 ft 476 kts 47°
2026-05-04 08:05 21.94641 -51.36197 37116 ft 477 kts 47°
2026-05-04 08:06 21.98921 -51.30731 37114 ft 477 kts 47°
2026-05-04 08:06 22.03183 -51.25284 37111 ft 475 kts 47°
2026-05-04 08:08 22.20209 -51.03469 37115 ft 476 kts 47°
2026-05-04 08:11 22.39331 -50.78859 37113 ft 474 kts 47°
2026-05-04 08:11 22.45672 -50.70674 37122 ft 474 kts 47°
2026-05-04 08:12 22.49225 -50.66081 37119 ft 476 kts 47°
2026-05-04 08:12 22.53470 -50.60588 37120 ft 475 kts 47°
2026-05-04 08:13 22.57697 -50.55113 37115 ft 473 kts 47°
2026-05-04 08:13 22.61885 -50.49684 37110 ft 474 kts 47°
2026-05-04 08:14 22.66109 -50.44202 37123 ft 475 kts 47°
2026-05-04 08:16 22.82975 -50.22252 37125 ft 472 kts 47°
2026-05-04 08:16 22.87173 -50.16777 37120 ft 473 kts 47°
2026-05-04 08:17 22.91380 -50.11281 37127 ft 474 kts 47°
2026-05-04 08:17 22.95597 -50.05767 37127 ft 475 kts 47°
2026-05-04 08:19 23.11049 -49.82452 37123 ft 477 kts 52°
2026-05-04 08:20 23.14789 -49.76501 37127 ft 477 kts 52°
2026-05-04 08:20 23.18519 -49.70557 37124 ft 476 kts 52°
2026-05-04 08:21 23.22241 -49.64617 37121 ft 475 kts 52°
2026-05-04 08:21 23.25960 -49.58678 37120 ft 475 kts 52°
2026-05-04 08:22 23.29674 -49.52737 37124 ft 475 kts 52°
2026-05-04 08:24 23.44494 -49.28968 37124 ft 473 kts 52°
2026-05-04 08:24 23.48194 -49.23016 37131 ft 476 kts 52°
2026-05-04 08:25 23.51895 -49.17054 37126 ft 474 kts 52°
2026-05-04 08:25 23.55581 -49.11112 37130 ft 473 kts 52°
2026-05-04 08:27 23.70332 -48.87259 37117 ft 472 kts 52°
2026-05-04 08:28 23.74001 -48.81308 37118 ft 473 kts 52°
2026-05-04 08:28 23.77646 -48.75389 37118 ft 473 kts 52°
2026-05-04 08:29 23.81316 -48.69423 37120 ft 473 kts 52°
2026-05-04 08:31 23.95918 -48.45613 37124 ft 470 kts 52°
2026-05-04 08:33 24.10532 -48.21669 37135 ft 473 kts 52°
2026-05-04 08:35 24.25086 -47.97708 37132 ft 473 kts 52°
2026-05-04 08:35 24.28724 -47.91699 37134 ft 472 kts 52°
2026-05-04 08:37 24.41400 -47.70709 37137 ft 474 kts 52°
2026-05-04 08:38 24.45028 -47.64684 37129 ft 472 kts 52°
2026-05-04 08:38 24.48639 -47.58680 37131 ft 471 kts 52°
2026-05-04 08:40 24.63122 -47.34528 37127 ft 473 kts 52°
2026-05-04 08:41 24.66743 -47.28472 37131 ft 475 kts 52°
2026-05-04 08:41 24.70368 -47.22398 37134 ft 475 kts 52°
2026-05-04 08:42 24.73992 -47.16319 37138 ft 475 kts 52°
2026-05-04 08:42 24.77613 -47.10240 37137 ft 475 kts 52°
2026-05-04 08:43 24.81234 -47.04152 37135 ft 476 kts 52°
2026-05-04 08:43 24.84859 -46.98050 37144 ft 476 kts 52°
2026-05-04 08:44 24.88481 -46.91945 37130 ft 476 kts 52°
2026-05-04 08:46 25.02874 -46.67606 37120 ft 472 kts 52°
2026-05-04 08:46 25.06460 -46.61524 37123 ft 474 kts 52°
2026-05-04 08:47 25.10055 -46.55416 37131 ft 476 kts 52°
2026-05-04 08:47 25.13663 -46.49281 37138 ft 477 kts 52°
2026-05-04 08:48 25.17263 -46.43149 37130 ft 475 kts 52°
2026-05-04 08:48 25.20852 -46.37031 37126 ft 474 kts 52°
2026-05-04 08:49 25.24434 -46.30915 37132 ft 476 kts 52°
2026-05-04 08:50 25.37016 -46.09371 37139 ft 478 kts 52°
2026-05-04 08:51 25.40594 -46.03225 37137 ft 478 kts 52°
2026-05-04 08:51 25.44207 -45.97012 37139 ft 476 kts 52°
2026-05-04 08:52 25.47782 -45.90856 37138 ft 475 kts 52°
2026-05-04 08:52 25.51353 -45.84700 37136 ft 475 kts 52°
2026-05-04 08:54 25.65663 -45.59945 37135 ft 477 kts 53°
2026-05-04 08:55 25.69238 -45.53740 37566 ft 477 kts 52°
2026-05-04 08:55 25.71018 -45.50646 37939 ft 476 kts 52°
2026-05-04 08:55 25.72795 -45.47558 38267 ft 475 kts 52°
2026-05-04 08:57 25.84601 -45.26980 39123 ft 473 kts 52°
2026-05-04 09:01 26.09943 -44.84298 39129 ft 471 kts 50°
2026-05-04 09:01 26.13705 -44.78348 39126 ft 470 kts 50°
2026-05-04 09:02 26.17451 -44.72406 39125 ft 468 kts 50°
2026-05-04 09:02 26.21201 -44.66459 39124 ft 470 kts 50°
2026-05-04 09:03 26.24959 -44.60484 39137 ft 472 kts 50°
2026-05-04 09:03 26.28731 -44.54483 39139 ft 473 kts 50°
2026-05-04 09:04 26.32501 -44.48475 39128 ft 473 kts 50°
2026-05-04 09:04 26.36263 -44.42473 39127 ft 472 kts 50°
2026-05-04 09:05 26.40016 -44.36478 39131 ft 471 kts 50°
2026-05-04 09:05 26.43758 -44.30491 39127 ft 470 kts 50°
2026-05-04 09:06 26.47495 -44.24506 39126 ft 469 kts 50°
2026-05-04 09:08 26.62398 -44.00559 39134 ft 473 kts 50°
2026-05-04 09:08 26.66145 -43.94515 39132 ft 472 kts 50°
2026-05-04 09:09 26.69882 -43.88483 39134 ft 471 kts 50°
2026-05-04 09:09 26.73607 -43.82460 39138 ft 470 kts 50°
2026-05-04 09:10 26.77331 -43.76433 39129 ft 470 kts 50°
2026-05-04 09:10 26.81046 -43.70410 39126 ft 470 kts 50°
2026-05-04 09:11 26.84757 -43.64387 39125 ft 470 kts 50°
2026-05-04 09:11 26.88465 -43.58360 39132 ft 470 kts 50°
2026-05-04 09:12 26.92181 -43.52314 39127 ft 472 kts 50°
2026-05-04 09:14 27.07051 -43.28030 39122 ft 470 kts 50°
2026-05-04 09:14 27.10753 -43.21962 39127 ft 472 kts 50°
2026-05-04 09:15 27.14465 -43.15871 39123 ft 473 kts 50°
2026-05-04 09:15 27.18182 -43.09763 39127 ft 473 kts 50°
2026-05-04 09:17 27.34789 -42.82372 39112 ft 471 kts 50°
2026-05-04 09:18 27.38478 -42.76264 39120 ft 473 kts 50°
2026-05-04 09:18 27.42177 -42.70132 39120 ft 474 kts 50°
2026-05-04 09:19 27.45869 -42.64001 39121 ft 472 kts 50°
2026-05-04 09:19 27.49545 -42.57890 39119 ft 471 kts 50°
2026-05-04 09:20 27.53211 -42.51786 39113 ft 470 kts 50°
2026-05-04 09:20 27.56875 -42.45678 39112 ft 471 kts 50°
2026-05-04 09:21 27.60538 -42.39563 39122 ft 471 kts 50°
2026-05-04 09:21 27.64203 -42.33434 39115 ft 471 kts 50°
2026-05-04 09:22 27.67839 -42.27347 39119 ft 471 kts 50°
2026-05-04 09:22 27.71498 -42.21212 39120 ft 471 kts 50°
2026-05-04 09:23 27.75160 -42.15065 39109 ft 472 kts 51°
2026-05-04 09:23 27.78824 -42.08904 39115 ft 473 kts 51°
2026-05-04 09:25 27.93489 -41.84159 39111 ft 474 kts 51°
2026-05-04 09:26 27.97153 -41.77955 39108 ft 474 kts 51°
2026-05-04 09:26 28.00818 -41.71740 39109 ft 475 kts 51°
2026-05-04 09:27 28.04487 -41.65509 39113 ft 476 kts 51°
2026-05-04 09:27 28.08152 -41.59274 39112 ft 475 kts 51°
2026-05-04 09:28 28.11803 -41.53056 39105 ft 473 kts 51°
2026-05-04 09:28 28.15439 -41.46853 39102 ft 472 kts 51°
2026-05-04 09:29 28.19069 -41.40654 39100 ft 472 kts 51°
2026-05-04 09:29 28.22701 -41.34441 39115 ft 473 kts 51°
2026-05-04 09:30 28.26333 -41.28219 39092 ft 473 kts 51°
2026-05-04 09:30 28.29956 -41.22002 39089 ft 472 kts 51°
2026-05-04 09:31 28.33571 -41.15792 39097 ft 471 kts 51°
2026-05-04 09:31 28.37180 -41.09583 39088 ft 472 kts 51°
2026-05-04 09:32 28.40797 -41.03351 39099 ft 473 kts 51°
2026-05-04 09:34 28.55244 -40.78364 39089 ft 471 kts 51°
2026-05-04 09:34 28.58840 -40.72122 39089 ft 472 kts 51°
2026-05-04 09:35 28.62443 -40.65858 39093 ft 474 kts 51°
2026-05-04 09:35 28.66056 -40.59568 39095 ft 475 kts 52°
2026-05-04 09:37 28.80502 -40.34320 39084 ft 476 kts 52°
2026-05-04 09:38 28.84109 -40.27994 39082 ft 475 kts 52°
2026-05-04 09:38 28.87704 -40.21677 39090 ft 474 kts 52°
2026-05-04 09:39 28.91290 -40.15369 39081 ft 474 kts 52°
2026-05-04 09:39 28.94870 -40.09060 39077 ft 473 kts 52°
2026-05-04 09:40 28.98446 -40.02748 39104 ft 473 kts 52°
2026-05-04 09:40 29.02252 -39.96681 39073 ft 468 kts 46°
2026-05-04 09:42 29.13432 -39.80203 39080 ft 470 kts 46°
2026-05-04 09:43 29.16785 -39.75238 39083 ft 471 kts 46°
2026-05-04 09:43 29.20791 -39.69308 39084 ft 471 kts 46°
2026-05-04 09:44 29.24798 -39.63364 39081 ft 472 kts 47°
2026-05-04 09:46 29.40753 -39.39617 39066 ft 469 kts 46°
2026-05-04 09:46 29.44730 -39.33677 39062 ft 469 kts 46°
2026-05-04 09:47 29.48691 -39.27751 39059 ft 467 kts 46°
2026-05-04 09:49 29.64492 -39.04028 39064 ft 465 kts 46°
2026-05-04 09:51 29.78179 -38.83370 39064 ft 464 kts 46°
2026-05-04 09:51 29.82083 -38.77458 39066 ft 464 kts 46°
2026-05-04 09:52 29.85986 -38.71538 39067 ft 464 kts 46°
2026-05-04 09:52 29.89893 -38.65603 39093 ft 465 kts 46°
2026-05-04 09:53 29.93785 -38.59682 39061 ft 462 kts 46°
2026-05-04 09:53 29.97660 -38.53782 39061 ft 461 kts 46°
2026-05-04 09:54 30.01507 -38.47913 39051 ft 461 kts 46°
2026-05-04 09:54 30.05402 -38.41963 39078 ft 462 kts 46°
2026-05-04 09:55 30.09276 -38.36036 39058 ft 462 kts 46°
2026-05-04 09:55 30.13145 -38.30107 39062 ft 462 kts 46°
2026-05-04 09:56 30.17014 -38.24171 39042 ft 462 kts 46°
2026-05-04 09:56 30.20840 -38.18288 39065 ft 460 kts 45°
2026-05-04 09:57 30.24736 -38.12299 39055 ft 465 kts 45°
2026-05-04 09:57 30.28614 -38.06315 39058 ft 465 kts 45°
2026-05-04 09:58 30.32470 -38.00366 39055 ft 465 kts 45°
2026-05-04 09:58 30.36348 -37.94370 39065 ft 466 kts 45°
2026-05-04 10:00 30.51891 -37.70251 39060 ft 468 kts 45°
2026-05-04 10:04 30.79073 -37.27719 39045 ft 469 kts 45°
2026-05-04 10:04 30.82953 -37.21609 39025 ft 470 kts 44°
2026-05-04 10:05 30.86823 -37.15505 39027 ft 468 kts 44°
2026-05-04 10:05 30.90675 -37.09422 39025 ft 467 kts 44°
2026-05-04 10:06 30.94530 -37.03327 39022 ft 468 kts 44°
2026-05-04 10:06 30.98366 -36.97248 39039 ft 470 kts 44°
2026-05-04 10:08 31.11847 -36.75818 39037 ft 469 kts 45°
2026-05-04 10:08 31.15688 -36.69687 39029 ft 467 kts 45°
2026-05-04 10:09 31.19514 -36.63576 39028 ft 466 kts 45°
2026-05-04 10:09 31.23334 -36.57463 39028 ft 466 kts 45°
2026-05-04 10:10 31.27152 -36.51343 39028 ft 466 kts 45°
2026-05-04 10:10 31.30968 -36.45217 39028 ft 466 kts 45°
2026-05-04 10:11 31.34782 -36.39084 39026 ft 466 kts 45°
2026-05-04 10:11 31.38597 -36.32941 39026 ft 466 kts 45°
2026-05-04 10:12 31.42405 -36.26798 39029 ft 466 kts 45°
2026-05-04 10:12 31.46209 -36.20652 39039 ft 465 kts 45°
2026-05-04 10:13 31.49384 -36.15514 39037 ft 464 kts 45°
2026-05-04 10:13 31.53787 -36.08383 39035 ft 465 kts 45°
2026-05-04 10:14 31.57580 -36.02223 39039 ft 466 kts 45°
2026-05-04 10:16 31.72711 -35.77564 39028 ft 465 kts 46°
2026-05-04 10:16 31.76491 -35.71383 39033 ft 467 kts 47°
2026-05-04 10:17 31.80278 -35.65172 39037 ft 468 kts 47°
2026-05-04 10:19 31.95447 -35.40210 39030 ft 471 kts 47°
2026-05-04 10:19 31.99253 -35.33923 39033 ft 471 kts 47°
2026-05-04 10:20 32.03052 -35.27636 39033 ft 471 kts 47°
2026-05-04 10:20 32.06850 -35.21343 39032 ft 472 kts 49°
2026-05-04 10:21 32.10649 -35.15031 39030 ft 472 kts 49°
2026-05-04 10:21 32.14444 -35.08720 39029 ft 471 kts 49°
2026-05-04 10:22 32.20129 -34.99244 39027 ft 471 kts 49°
2026-05-04 10:23 32.23923 -34.92910 39020 ft 474 kts 49°
2026-05-04 10:25 32.39129 -34.67408 39030 ft 477 kts 50°
2026-05-04 10:25 32.42938 -34.60988 39035 ft 476 kts 50°
2026-05-04 10:26 32.46741 -34.54575 39039 ft 476 kts 50°
2026-05-04 10:26 32.50538 -34.48156 39036 ft 475 kts 50°
2026-05-04 10:27 32.53693 -34.42820 39037 ft 477 kts 51°
2026-05-04 10:27 32.57498 -34.36365 39041 ft 478 kts 51°
2026-05-04 10:28 32.61307 -34.29899 39040 ft 478 kts 51°
2026-05-04 10:28 32.65111 -34.23427 39042 ft 478 kts 51°
2026-05-04 10:29 32.68918 -34.16941 39042 ft 479 kts 52°
2026-05-04 10:29 32.72716 -34.10456 39046 ft 478 kts 52°
2026-05-04 10:30 32.76509 -34.03970 39043 ft 478 kts 52°
2026-05-04 10:30 32.80296 -33.97484 39041 ft 477 kts 52°
2026-05-04 10:31 32.84076 -33.90998 39039 ft 477 kts 52°
2026-05-04 10:32 32.97266 -33.68278 39043 ft 476 kts 52°
2026-05-04 10:33 33.01020 -33.61783 39042 ft 476 kts 52°
2026-05-04 10:33 33.04765 -33.55296 39041 ft 475 kts 52°
2026-05-04 10:34 33.08513 -33.48792 39040 ft 476 kts 52°
2026-05-04 10:34 33.12266 -33.42267 39061 ft 478 kts 52°
2026-05-04 10:35 33.16031 -33.35710 39061 ft 480 kts 52°
2026-05-04 10:35 33.19792 -33.29147 39060 ft 479 kts 53°
2026-05-04 10:36 33.23546 -33.22587 39059 ft 478 kts 53°
2026-05-04 10:36 33.27296 -33.16022 39059 ft 478 kts 53°
2026-05-04 10:37 33.31059 -33.09423 39072 ft 482 kts 53°
2026-05-04 10:37 33.34829 -33.02796 39072 ft 482 kts 53°
2026-05-04 10:39 33.47982 -32.79592 39081 ft 484 kts 53°
2026-05-04 10:40 33.51756 -32.72909 39082 ft 485 kts 53°
2026-05-04 10:40 33.55526 -32.66213 39084 ft 484 kts 53°
2026-05-04 10:41 33.59295 -32.59516 39087 ft 485 kts 52°
2026-05-04 10:41 33.63059 -32.52805 39090 ft 485 kts 52°
2026-05-04 10:42 33.66833 -32.46075 39098 ft 486 kts 53°
2026-05-04 10:42 33.70598 -32.39345 39099 ft 486 kts 53°
2026-05-04 10:43 33.74361 -32.32603 39096 ft 486 kts 53°
2026-05-04 10:45 33.89393 -32.05555 39114 ft 486 kts 54°
2026-05-04 10:45 33.93140 -31.98781 39112 ft 486 kts 54°
2026-05-04 10:46 33.96885 -31.91997 39117 ft 486 kts 54°
2026-05-04 10:46 34.00625 -31.85213 39118 ft 486 kts 54°
2026-05-04 10:47 34.04359 -31.78422 39118 ft 486 kts 54°
2026-05-04 10:47 34.08089 -31.71627 39127 ft 486 kts 54°
2026-05-04 10:49 34.22935 -31.44457 39134 ft 485 kts 54°
2026-05-04 10:50 34.26640 -31.37646 39133 ft 485 kts 55°
2026-05-04 10:52 34.41422 -31.10337 39144 ft 486 kts 55°
2026-05-04 10:52 34.45115 -31.03482 39144 ft 486 kts 56°
2026-05-04 10:54 34.59850 -30.75998 39146 ft 486 kts 56°
2026-05-04 10:56 34.74519 -30.48422 39159 ft 486 kts 56°
2026-05-04 10:57 34.78176 -30.41510 39164 ft 486 kts 56°
2026-05-04 10:57 34.81831 -30.34598 39165 ft 485 kts 56°
2026-05-04 10:58 34.85476 -30.27683 39165 ft 485 kts 56°
2026-05-04 10:58 34.89125 -30.20749 39171 ft 487 kts 56°
2026-05-04 10:59 34.92777 -30.13796 39173 ft 487 kts 56°
2026-05-04 10:59 34.96426 -30.06837 39185 ft 488 kts 56°
2026-05-04 11:00 35.00078 -29.99869 39185 ft 487 kts 55°
2026-05-04 11:02 35.15474 -29.72655 39196 ft 487 kts 54°
2026-05-04 11:05 35.44270 -29.21213 39215 ft 491 kts 54°
2026-05-04 11:06 35.48122 -29.14276 39218 ft 492 kts 54°
2026-05-04 11:06 35.51965 -29.07337 39220 ft 492 kts 54°
2026-05-04 11:10 35.78802 -28.58497 39235 ft 494 kts 54°
2026-05-04 11:12 35.93485 -28.31484 39245 ft 495 kts 54°
2026-05-04 11:12 35.97303 -28.24425 39244 ft 494 kts 54°
2026-05-04 11:13 36.01111 -28.17370 39248 ft 494 kts 54°
2026-05-04 11:13 36.04913 -28.10314 39248 ft 493 kts 55°
2026-05-04 11:14 36.08678 -28.03306 39245 ft 493 kts 54°
2026-05-04 11:16 36.23852 -27.74932 39251 ft 495 kts 54°
2026-05-04 11:16 36.27642 -27.67809 39255 ft 495 kts 54°
2026-05-04 11:17 36.31776 -27.61045 39258 ft 492 kts 47°
2026-05-04 11:19 36.49594 -27.35182 39269 ft 493 kts 47°
2026-05-04 11:19 36.54039 -27.28688 39265 ft 494 kts 47°
2026-05-04 11:20 36.58483 -27.22175 39270 ft 494 kts 47°
2026-05-04 11:20 36.62922 -27.15656 39276 ft 494 kts 47°
2026-05-04 11:22 36.80627 -26.89534 39276 ft 493 kts 47°
2026-05-04 11:23 36.85046 -26.82982 39281 ft 493 kts 47°
2026-05-04 11:25 37.00552 -26.59889 39291 ft 496 kts 47°
2026-05-04 11:25 37.04987 -26.53255 39292 ft 497 kts 47°
2026-05-04 11:27 37.24908 -26.23288 39301 ft 498 kts 48°
2026-05-04 11:28 37.29344 -26.16577 39304 ft 500 kts 48°
2026-05-04 11:28 37.33779 -26.09856 39303 ft 499 kts 48°
2026-05-04 11:29 37.38199 -26.03143 39296 ft 498 kts 48°
2026-05-04 11:29 37.42608 -25.96431 39297 ft 497 kts 48°
2026-05-04 11:33 37.73524 -25.48992 39301 ft 501 kts 49°
2026-05-04 11:33 37.77934 -25.42169 39303 ft 501 kts 49°
2026-05-04 11:34 37.82334 -25.35347 39309 ft 501 kts 49°
2026-05-04 11:34 37.86739 -25.28503 39312 ft 501 kts 49°
2026-05-04 11:35 37.91135 -25.21658 39312 ft 501 kts 49°
2026-05-04 11:35 37.95523 -25.14811 39314 ft 500 kts 49°
2026-05-04 11:36 37.99903 -25.07963 39313 ft 500 kts 49°
2026-05-04 11:36 38.04277 -25.01111 39317 ft 500 kts 49°
2026-05-04 11:37 38.08646 -24.94251 39308 ft 499 kts 49°
2026-05-04 11:37 38.13002 -24.87397 39309 ft 498 kts 49°
2026-05-04 11:38 38.17348 -24.80545 39314 ft 498 kts 49°
2026-05-04 11:38 38.21693 -24.73679 39301 ft 499 kts 49°
2026-05-04 11:39 38.26040 -24.66795 39310 ft 498 kts 49°
2026-05-04 11:41 38.41182 -24.42705 39306 ft 497 kts 49°
2026-05-04 11:41 38.45492 -24.35815 39309 ft 497 kts 49°
2026-05-04 11:42 38.49785 -24.28938 39313 ft 499 kts 49°
2026-05-04 11:42 38.54115 -24.21987 39319 ft 500 kts 50°
2026-05-04 11:43 38.58424 -24.15051 39307 ft 497 kts 50°
2026-05-04 11:43 38.62715 -24.08134 39313 ft 496 kts 50°
2026-05-04 11:44 38.67000 -24.01210 39322 ft 496 kts 50°
2026-05-04 11:44 38.71281 -23.94277 39319 ft 496 kts 50°
2026-05-04 11:45 38.75563 -23.87328 39319 ft 496 kts 50°
2026-05-04 11:45 38.79837 -23.80378 39319 ft 496 kts 50°
2026-05-04 11:46 38.84107 -23.73419 39316 ft 497 kts 50°
2026-05-04 11:46 38.88373 -23.66450 39315 ft 496 kts 50°
2026-05-04 11:47 38.92622 -23.59494 39311 ft 495 kts 50°
2026-05-04 11:47 38.96864 -23.52536 39311 ft 495 kts 50°
2026-05-04 11:48 39.01104 -23.45565 39317 ft 495 kts 50°
2026-05-04 11:48 39.05309 -23.38637 39321 ft 495 kts 50°
2026-05-04 11:49 39.09568 -23.31605 39319 ft 495 kts 51°
2026-05-04 11:49 39.13799 -23.24603 39325 ft 496 kts 51°
2026-05-04 11:50 39.18032 -23.17582 39320 ft 496 kts 51°
2026-05-04 11:50 39.22220 -23.10621 39313 ft 492 kts 51°
2026-05-04 11:51 39.26402 -23.03654 39310 ft 490 kts 51°
2026-05-04 11:51 39.30575 -22.96689 39310 ft 491 kts 51°
2026-05-04 11:52 39.34748 -22.89706 39315 ft 491 kts 51°
2026-05-04 11:52 39.38925 -22.82704 39314 ft 492 kts 51°
2026-05-04 11:53 39.43101 -22.75685 39313 ft 492 kts 51°
2026-05-04 11:53 39.47264 -22.68673 39310 ft 490 kts 51°
2026-05-04 11:55 39.63791 -22.40686 39319 ft 489 kts 52°
2026-05-04 11:56 39.67916 -22.33661 39315 ft 490 kts 52°
2026-05-04 11:56 39.72042 -22.26620 39313 ft 489 kts 52°
2026-05-04 11:57 39.75463 -22.20769 39313 ft 489 kts 52°
2026-05-04 11:57 39.79577 -22.13719 39313 ft 489 kts 52°
2026-05-04 11:58 39.83687 -22.06661 39313 ft 490 kts 52°
2026-05-04 11:58 39.87789 -21.99600 39310 ft 488 kts 52°
2026-05-04 11:59 39.91882 -21.92539 39308 ft 487 kts 52°
2026-05-04 11:59 39.95959 -21.85489 39305 ft 487 kts 52°
2026-05-04 12:00 40.00042 -21.78414 39311 ft 489 kts 52°
2026-05-04 12:00 40.04135 -21.71306 39315 ft 490 kts 52°
2026-05-04 12:01 40.08229 -21.64179 39318 ft 491 kts 52°
2026-05-04 12:02 40.22489 -21.39228 39313 ft 490 kts 52°
2026-05-04 12:03 40.26563 -21.32064 39313 ft 491 kts 52°
2026-05-04 12:03 40.30635 -21.24887 39314 ft 491 kts 52°
2026-05-04 12:04 40.34705 -21.17695 39316 ft 492 kts 52°
2026-05-04 12:04 40.38775 -21.10487 39312 ft 492 kts 51°
2026-05-04 12:05 40.42842 -21.03269 39311 ft 492 kts 52°
2026-05-04 12:05 40.46903 -20.96043 39297 ft 491 kts 51°
2026-05-04 12:06 40.50960 -20.88811 39303 ft 492 kts 51°
2026-05-04 12:06 40.55016 -20.81560 39305 ft 493 kts 51°
2026-05-04 12:07 40.59076 -20.74287 39313 ft 494 kts 51°
2026-05-04 12:07 40.63131 -20.67005 39310 ft 493 kts 51°
2026-05-04 12:08 40.67170 -20.59736 39300 ft 491 kts 51°
2026-05-04 12:08 40.71199 -20.52467 39297 ft 490 kts 51°
2026-05-04 12:09 40.75216 -20.45202 39302 ft 491 kts 51°
2026-05-04 12:09 40.79252 -20.37888 39305 ft 494 kts 51°
2026-05-04 12:10 40.83287 -20.30554 39302 ft 493 kts 51°
2026-05-04 12:10 40.87316 -20.23219 39303 ft 493 kts 51°
2026-05-04 12:11 40.91336 -20.15880 39303 ft 493 kts 51°
2026-05-04 12:11 40.95357 -20.08522 39302 ft 494 kts 51°
2026-05-04 12:12 40.99375 -20.01159 39303 ft 493 kts 50°
2026-05-04 12:12 41.03965 -19.94604 39300 ft 489 kts 41°
2026-05-04 12:14 41.22980 -19.68700 39289 ft 487 kts 41°
2026-05-04 12:15 41.27705 -19.62236 39286 ft 488 kts 41°
2026-05-04 12:15 41.32433 -19.55734 39295 ft 490 kts 41°
2026-05-04 12:16 41.37166 -19.49220 39297 ft 489 kts 41°
2026-05-04 12:16 41.41875 -19.42721 39290 ft 486 kts 41°
2026-05-04 12:17 41.46598 -19.36191 39285 ft 486 kts 41°
2026-05-04 12:17 41.51255 -19.29737 39287 ft 487 kts 41°
2026-05-04 12:18 41.55950 -19.23213 39292 ft 488 kts 41°
2026-05-04 12:18 41.60649 -19.16671 39303 ft 488 kts 41°
2026-05-04 12:19 41.65335 -19.10131 39294 ft 486 kts 41°
2026-05-04 12:19 41.69994 -19.03617 39289 ft 483 kts 41°
2026-05-04 12:20 41.74643 -18.97102 39283 ft 484 kts 41°
2026-05-04 12:20 41.79295 -18.90567 39285 ft 485 kts 41°
2026-05-04 12:21 41.83954 -18.84008 39290 ft 486 kts 41°
2026-05-04 12:21 41.88616 -18.77428 39285 ft 486 kts 41°
2026-05-04 12:22 41.93259 -18.70861 39267 ft 484 kts 41°
2026-05-04 12:22 41.97894 -18.64292 39282 ft 484 kts 41°
2026-05-04 12:23 42.02519 -18.57720 39285 ft 484 kts 41°
2026-05-04 12:23 42.07140 -18.51141 39285 ft 484 kts 41°
2026-05-04 12:24 42.11757 -18.44552 39275 ft 484 kts 42°
2026-05-04 12:24 42.16368 -18.37955 39281 ft 483 kts 42°
2026-05-04 12:25 42.20959 -18.31372 39283 ft 482 kts 42°
2026-05-04 12:25 42.25556 -18.24768 39282 ft 483 kts 42°
2026-05-04 12:26 42.30156 -18.18143 39286 ft 484 kts 42°
2026-05-04 12:26 42.34761 -18.11496 39285 ft 485 kts 42°
2026-05-04 12:27 42.39371 -18.04825 39292 ft 485 kts 42°
2026-05-04 12:27 42.43959 -17.98169 39277 ft 482 kts 42°
2026-05-04 12:28 42.48529 -17.91529 39269 ft 482 kts 42°
2026-05-04 12:28 42.53067 -17.84917 39274 ft 482 kts 42°
2026-05-04 12:29 42.57630 -17.78254 39274 ft 482 kts 42°
2026-05-04 12:29 42.62197 -17.71571 39257 ft 484 kts 42°
2026-05-04 12:30 42.66770 -17.64860 39269 ft 484 kts 43°
2026-05-04 12:30 42.71330 -17.58155 39266 ft 482 kts 43°
2026-05-04 12:31 42.75875 -17.51457 39262 ft 481 kts 43°
2026-05-04 12:31 42.80413 -17.44753 39256 ft 482 kts 43°
2026-05-04 12:32 42.87249 -17.34625 39265 ft 485 kts 43°
2026-05-04 12:33 42.91815 -17.27840 39255 ft 485 kts 43°
2026-05-04 12:33 42.96355 -17.21077 39252 ft 482 kts 43°
2026-05-04 12:34 43.00880 -17.14323 39249 ft 482 kts 43°
2026-05-04 12:34 43.05404 -17.07551 39251 ft 482 kts 43°
2026-05-04 12:35 43.09921 -17.00778 39253 ft 483 kts 43°
2026-05-04 12:35 43.14462 -16.93949 39253 ft 486 kts 43°
2026-05-04 12:36 43.18995 -16.87114 39246 ft 482 kts 43°
2026-05-04 12:36 43.23499 -16.80312 39244 ft 482 kts 43°
2026-05-04 12:37 43.28001 -16.73495 39244 ft 482 kts 44°
2026-05-04 12:37 43.32509 -16.66651 39245 ft 484 kts 44°
2026-05-04 12:38 43.37022 -16.59784 39246 ft 484 kts 44°
2026-05-04 12:38 43.41536 -16.52899 39244 ft 485 kts 44°
2026-05-04 12:39 43.46035 -16.46019 39230 ft 483 kts 44°
2026-05-04 12:39 43.50520 -16.39147 39230 ft 482 kts 44°
2026-05-04 12:40 43.55001 -16.32263 39236 ft 484 kts 44°
2026-05-04 12:40 43.59508 -16.25322 39239 ft 486 kts 44°
2026-05-04 12:41 43.64014 -16.18365 39231 ft 486 kts 44°
2026-05-04 12:41 43.68516 -16.11398 39231 ft 486 kts 44°
2026-05-04 12:42 43.72253 -16.05602 39232 ft 486 kts 44°
2026-05-04 12:42 43.76747 -15.98616 39248 ft 486 kts 44°
2026-05-04 12:43 43.81206 -15.91667 39228 ft 487 kts 44°
2026-05-04 12:43 43.85697 -15.84652 39226 ft 486 kts 44°
2026-05-04 12:44 43.90178 -15.77637 39224 ft 486 kts 45°
2026-05-04 12:44 43.94624 -15.70654 39203 ft 482 kts 44°
2026-05-04 12:45 43.99069 -15.63663 39215 ft 484 kts 45°
2026-05-04 12:45 44.03518 -15.56642 39223 ft 484 kts 45°
2026-05-04 12:46 44.07968 -15.49606 39220 ft 485 kts 45°
2026-05-04 12:46 44.12416 -15.42554 39214 ft 485 kts 45°
2026-05-04 12:47 44.16863 -15.35486 39211 ft 484 kts 45°
2026-05-04 12:47 44.21289 -15.28434 39206 ft 483 kts 45°
2026-05-04 12:48 44.25702 -15.21386 39236 ft 484 kts 45°
2026-05-04 12:48 44.27913 -15.17847 39516 ft 483 kts 45°
2026-05-04 12:48 44.30120 -15.14311 39809 ft 483 kts 45°
2026-05-04 12:48 44.32325 -15.10774 40077 ft 483 kts 45°
2026-05-04 12:49 44.34534 -15.07227 40322 ft 484 kts 45°
2026-05-04 12:49 44.36743 -15.03674 40559 ft 485 kts 46°
2026-05-04 12:49 44.38953 -15.00114 40810 ft 485 kts 46°
2026-05-04 12:49 44.41133 -14.96599 41067 ft 485 kts 46°
2026-05-04 12:50 44.43346 -14.93028 41330 ft 485 kts 46°
2026-05-04 12:50 44.45554 -14.89459 41576 ft 485 kts 46°
2026-05-04 12:50 44.47762 -14.85887 41830 ft 485 kts 46°
2026-05-04 12:50 44.49969 -14.82311 42079 ft 485 kts 46°
2026-05-04 12:51 44.52176 -14.78730 42319 ft 486 kts 46°
2026-05-04 12:51 44.54385 -14.75141 42542 ft 487 kts 46°
2026-05-04 12:51 44.56595 -14.71546 42768 ft 487 kts 46°
2026-05-04 12:51 44.58805 -14.67947 43002 ft 487 kts 47°
2026-05-04 12:52 44.61018 -14.64338 43164 ft 489 kts 46°
2026-05-04 12:52 44.65474 -14.57059 43169 ft 490 kts 47°
2026-05-04 12:53 44.69884 -14.49832 43172 ft 485 kts 47°
2026-05-04 12:53 44.74269 -14.42634 43174 ft 484 kts 47°
2026-05-04 12:54 44.78643 -14.35431 43167 ft 485 kts 47°
2026-05-04 12:54 44.83022 -14.28204 43165 ft 485 kts 47°
2026-05-04 12:55 44.87397 -14.20962 43174 ft 484 kts 47°
2026-05-04 12:55 44.91767 -14.13715 43173 ft 485 kts 47°
2026-05-04 12:56 44.96130 -14.06456 43175 ft 485 kts 47°
2026-05-04 12:56 45.00503 -13.99200 43165 ft 484 kts 45°
2026-05-04 12:57 45.04974 -13.92078 43165 ft 485 kts 46°
2026-05-04 12:57 45.09429 -13.84917 43162 ft 485 kts 46°
2026-05-04 12:58 45.13909 -13.77759 43157 ft 485 kts 47°
2026-05-04 12:58 45.18354 -13.70583 43161 ft 484 kts 46°
2026-05-04 12:59 45.22804 -13.63421 43154 ft 484 kts 46°
2026-05-04 12:59 45.27242 -13.56234 43147 ft 484 kts 46°
2026-05-04 13:00 45.31680 -13.49044 43142 ft 484 kts 46°
2026-05-04 13:00 45.36113 -13.41839 43137 ft 484 kts 47°
2026-05-04 13:01 45.40540 -13.34623 43143 ft 483 kts 47°
2026-05-04 13:01 45.44954 -13.27409 43126 ft 483 kts 46°
2026-05-04 13:02 45.49362 -13.20190 43132 ft 483 kts 47°
2026-05-04 13:02 45.53761 -13.12963 43121 ft 482 kts 46°
2026-05-04 13:03 45.58083 -13.05851 43127 ft 483 kts 47°
2026-05-04 13:03 45.62481 -12.98586 43123 ft 483 kts 47°
2026-05-04 13:04 45.66862 -12.91335 43111 ft 483 kts 46°
2026-05-04 13:04 45.71244 -12.84062 43113 ft 482 kts 47°
2026-05-04 13:05 45.75646 -12.76736 43105 ft 482 kts 47°
2026-05-04 13:05 45.79989 -12.69492 43107 ft 482 kts 47°
2026-05-04 13:06 45.84362 -12.62179 43096 ft 484 kts 47°
2026-05-04 13:06 45.88734 -12.54844 43099 ft 484 kts 47°
2026-05-04 13:07 45.93094 -12.47512 43096 ft 482 kts 47°
2026-05-04 13:07 45.97443 -12.40180 43081 ft 482 kts 47°
2026-05-04 13:08 46.01792 -12.32830 43080 ft 482 kts 48°
2026-05-04 13:08 46.06133 -12.25469 43076 ft 482 kts 47°
2026-05-04 13:09 46.10469 -12.18101 43079 ft 482 kts 47°
2026-05-04 13:09 46.14800 -12.10718 43081 ft 482 kts 47°
2026-05-04 13:10 46.19129 -12.03326 43071 ft 482 kts 47°
2026-05-04 13:10 46.23465 -11.95896 43071 ft 485 kts 48°
2026-05-04 13:11 46.27814 -11.88425 43069 ft 485 kts 47°
2026-05-04 13:11 46.32153 -11.80951 43063 ft 485 kts 48°
2026-05-04 13:12 46.36483 -11.73468 43060 ft 485 kts 48°
2026-05-04 13:12 46.40810 -11.65978 43059 ft 485 kts 48°
2026-05-04 13:13 46.45138 -11.58459 43048 ft 486 kts 49°
2026-05-04 13:13 46.49464 -11.50929 43048 ft 486 kts 48°
2026-05-04 13:14 46.53754 -11.43436 43049 ft 486 kts 48°
2026-05-04 13:14 46.58068 -11.35883 43046 ft 486 kts 49°
2026-05-04 13:15 46.62388 -11.28300 43024 ft 487 kts 49°
2026-05-04 13:15 46.66704 -11.20699 43023 ft 486 kts 49°
2026-05-04 13:16 46.71008 -11.13104 43034 ft 486 kts 49°
2026-05-04 13:16 46.75306 -11.05492 43014 ft 486 kts 49°
2026-05-04 13:17 46.79602 -10.97868 43019 ft 487 kts 49°
2026-05-04 13:17 46.83899 -10.90217 43029 ft 488 kts 49°
2026-05-04 13:18 46.88196 -10.82546 43029 ft 487 kts 50°
2026-05-04 13:18 46.92485 -10.74871 43022 ft 487 kts 50°
2026-05-04 13:19 46.96762 -10.67191 43022 ft 487 kts 50°
2026-05-04 13:19 47.01041 -10.59487 43029 ft 487 kts 49°
2026-05-04 13:20 47.05311 -10.51780 43023 ft 487 kts 50°
2026-05-04 13:20 47.09576 -10.44058 43022 ft 487 kts 50°
2026-05-04 13:21 47.13841 -10.36317 43028 ft 487 kts 50°
2026-05-04 13:21 47.18091 -10.28578 43033 ft 487 kts 50°
2026-05-04 13:22 47.22342 -10.20816 43034 ft 487 kts 50°
2026-05-04 13:22 47.26589 -10.13041 43027 ft 487 kts 50°
2026-05-04 13:23 47.30834 -10.05246 43027 ft 487 kts 50°
2026-05-04 13:23 47.35071 -9.97446 43025 ft 488 kts 51°
2026-05-04 13:24 47.39314 -9.89610 43022 ft 489 kts 50°
2026-05-04 13:24 47.43522 -9.81815 43027 ft 489 kts 51°
2026-05-04 13:25 47.49867 -9.70023 43022 ft 489 kts 51°
2026-05-04 13:25 47.54088 -9.62149 43025 ft 489 kts 51°
2026-05-04 13:26 47.58316 -9.54239 43014 ft 490 kts 51°
2026-05-04 13:26 47.62538 -9.46319 43016 ft 490 kts 51°
2026-05-04 13:27 47.66749 -9.38396 43014 ft 489 kts 51°